Погода в Гремячеве

Россия / Нижегородская область     55°23′26″N   43°02′13″E
темп.,
°C
ветер,
м/с
пор.,
м/с
влажн.,
%
обл.,
%
осадки,
мм/ч
давл.,
гПа
погр.,
м
15 мая, сб
сб1500:00+16юв3109165 1.2 1014222
03:00+15юв2297100 3.1 101439
06:00+17юв389193 0.0 1013198
09:00+21ю48716 0.0 1012520
12:00+26ююз595799 0.0 10121402
15:00+20зюз4981100 1.0 1014550
18:00+19ю31186100 0.3 1013580
21:00+16ю2296100 0.5 101346
16 мая, вс
вс1600:00+15ююз28965 0.0 1013180
03:00+14ююз24965 0.0 101478
06:00+15ююз268891 0.0 1014183
09:00+21ююз36574 0.0 1015876
12:00+24юз48430 0.0 10152046
15:00+24юз48410 0.0 10142303
18:00+22з36575 0.0 1014460
21:00+16юз22734 0.0 101512
17 мая, пн
пн1700:00+14зюз118131 0.0 101610
03:00+13всв008479 0.0 101710
06:00+16вюв237787 0.0 101796
09:00+22в345989 0.0 1017556
12:00+26юв34505 0.0 10161077
15:00+28ююв47385 0.0 10151619
18:00+24юв38555 0.0 1015362
21:00+17юв387592 0.0 1015140
18 мая, вт
вт1800:00+16юв3976100 0.0 1015147
03:00+15юв38774 0.0 1014135
06:00+17юв39700 0.0 1014205
09:00+24юв510441 0.0 1013530
12:00+27ююв583535 0.0 10131015
15:00+28юв58315 0.0 10122221
18:00+24вюв51254100 0.0 1011596
21:00+19юв41470100 0.0 1011337
19 мая, ср
ср1900:00+19юв41664100 0.0 1010396
03:00+17вюв31064100 0.0 1010223
06:00+18юв414617 0.0 1009552
09:00+20ю4858100 0.0 1010643
12:00+24юв465397 0.0 1009897
15:00+23ююв51356100 0.0 10081989
18:00+19ююз4107936 0.9 1009879
21:00+16ююз412861 1.2 1009624